Location: Aufkirchen
(47.9603°N, 11.3653°E)
Time: 23:54:36
(UTC+01:00)

Explorer 7 - Visible Passes

Search period start: 05 December 2020 00:00
Search period end: 15 December 2020 00:00
Orbit: 484 x 678 km, 50.3° (Epoch: 04 December)

Date Brightness Start Highest point End Pass type
(mag) Time Alt. Az. Time Alt. Az. Time Alt. Az.
05 Dec 9.2 04:33:02 21° ESE 04:33:02 21° ESE 04:34:28 10° ESE visible
05 Dec 8.3 06:09:21 20° WSW 06:10:22 22° SW 06:13:32 10° S visible
06 Dec 9.2 04:37:46 19° SE 04:37:46 19° SE 04:38:59 10° SE visible
06 Dec 8.7 06:14:05 15° WSW 06:14:43 15° SW 06:17:04 10° S visible
07 Dec 9.4 04:42:33 15° SE 04:42:33 15° SE 04:43:21 10° SE visible
08 Dec 9.6 04:47:24 11° SSE 04:47:24 11° SSE 04:47:32 10° SSE visible
14 Dec 9.5 19:09:24 10° S 19:10:20 14° S 19:10:20 14° S visible
